Weather reports worldwide

Advertisment
Tucson/Int., United States of America (72274): temperature & dewpoint: 05.07.2020 06:00:00 - 11.07.2020 06:00:00 (MST)Tucson/Int., United States of America (72274): wind speed & gusts: 05.07.2020 06:00:00 - 11.07.2020 06:00:00 (MST)Tucson/Int., United States of America (72274): wind direction: 05.07.2020 06:00:00 - 11.07.2020 06:00:00 (MST)Tucson/Int., United States of America (72274): reduced air pressure: 05.07.2020 06:00:00 - 11.07.2020 06:00:00 (MST)Tucson/Int., United States of America (72274): visibility: 05.07.2020 06:00:00 - 11.07.2020 06:00:00 (MST)Tucson/Int., United States of America (72274): precipitation: 05.07.2020 06:00:00 - 11.07.2020 06:00:00 (MST)
Date & Time tt [°C] td [°C] ff [km/h] ff [kn] fx [km/h] fx [kn] dd ppp [hPa] vv [km] rr [mm]
11.07.2020 06:00:00 28,9 13,9 13 7 - - S 1011,9 16 -
11.07.2020 05:00:00 28,9 13,3 11 6 - - SSW 1011,2 16 0,0
11.07.2020 04:00:00 30,6 12,8 8 4 - - SSE 1010,3 16 -
11.07.2020 03:00:00 32,8 12,2 5 3 - - ESE 1009,9 16 -
11.07.2020 02:00:00 32,8 11,1 15 8 - - W 1009,9 16 -
11.07.2020 01:00:00 32,8 12,8 28 15 - - SW 1011,4 16 -
11.07.2020 00:00:00 35,0 9,4 11 6 - - S 1011,2 16 -
10.07.2020 23:00:00 35,6 8,9 13 7 - - NNW 1009,7 16 0,0
10.07.2020 22:00:00 36,7 8,9 15 8 - - WNW 1009,6 16 -
10.07.2020 21:00:00 37,2 9,4 15 8 - - WNW 1008,9 16 -
10.07.2020 20:00:00 37,8 9,4 22 12 - - NW 1008,4 16 -
10.07.2020 19:00:00 38,9 10,6 22 12 - - NW 1007,7 16 -
10.07.2020 18:00:00 40,0 11,1 31 17 - - NW 1007,6 16 -
10.07.2020 17:00:00 41,1 11,1 24 13 - - N 1008,0 16 0,0
10.07.2020 16:00:00 41,1 11,1 34 18 48 26 NNW 1008,6 16 -
10.07.2020 15:00:00 40,6 11,1 22 12 52 28 NW 1009,4 16 -
10.07.2020 14:00:00 39,4 11,1 18 10 - - W 1010,3 16 -
10.07.2020 13:00:00 38,9 11,7 28 15 - - NW 1011,4 16 -
10.07.2020 12:00:00 37,8 12,2 28 15 - - NW 1012,1 16 -
10.07.2020 11:00:00 36,7 11,1 16 9 - - NW 1013,0 16 0,0
10.07.2020 10:00:00 33,3 11,7 9 5 - - NW 1013,6 16 -
10.07.2020 09:00:00 32,2 11,7 8 4 - - SW 1014,0 16 -
10.07.2020 08:00:00 30,0 13,3 0 0 - - N 1013,9 16 -
10.07.2020 07:00:00 28,9 13,3 11 6 - - S 1013,2 16 -
10.07.2020 06:00:00 28,9 12,2 0 0 - - N 1012,3 16 -
10.07.2020 05:00:00 29,4 12,2 5 3 - - SSE 1011,3 16 0,0
10.07.2020 04:00:00 30,6 12,8 5 3 - - SE 1010,8 16 -
10.07.2020 03:00:00 30,6 12,8 0 0 - - N 1010,7 16 -
10.07.2020 02:00:00 30,6 14,4 9 5 - - SSW 1010,6 16 -
10.07.2020 01:00:00 30,6 15,6 13 7 - - S 1010,6 16 -
10.07.2020 00:00:00 32,8 13,3 8 4 - - WNW 1009,7 16 -
09.07.2020 23:00:00 33,3 14,4 8 4 - - W 1009,5 16 0,0
09.07.2020 22:00:00 35,0 12,8 15 8 - - W 1008,4 16 -
09.07.2020 21:00:00 35,0 12,2 11 6 - - W 1008,0 16 -
09.07.2020 20:00:00 36,1 12,8 22 12 - - W 1006,8 16 -
09.07.2020 19:00:00 38,9 11,7 16 9 - - NW 1006,2 16 -
09.07.2020 18:00:00 39,4 11,1 16 9 - - NW 1005,8 16 -
09.07.2020 17:00:00 40,6 10,6 15 8 - - NNW 1005,8 16 0,0
09.07.2020 16:00:00 40,6 10,6 9 5 - - - 1006,2 16 -
09.07.2020 15:00:00 41,1 11,1 0 0 - - N 1006,8 16 -
09.07.2020 14:00:00 40,0 10,0 11 6 - - - 1007,6 16 -
09.07.2020 13:00:00 39,4 9,4 9 5 - - S 1008,2 16 -
09.07.2020 12:00:00 38,3 8,9 16 9 - - SSW 1008,9 16 -
09.07.2020 11:00:00 37,8 9,4 13 7 - - SW 1009,2 16 0,0
09.07.2020 10:00:00 36,1 10,6 5 3 - - - 1009,4 16 -
09.07.2020 09:00:00 34,4 11,7 11 6 - - SSE 1009,3 16 -
09.07.2020 08:00:00 32,8 12,8 18 10 - - S 1009,2 16 -
09.07.2020 07:00:00 30,6 11,7 15 8 - - S 1009,3 16 -
09.07.2020 06:00:00 28,3 9,4 5 3 - - SSE 1008,6 16 -
09.07.2020 05:00:00 27,2 10,0 5 3 - - SSE 1008,1 16 0,0
09.07.2020 04:00:00 28,9 9,4 0 0 - - N 1007,6 16 -
09.07.2020 03:00:00 29,4 9,4 0 0 - - N 1007,2 16 -
09.07.2020 02:00:00 31,1 8,9 9 5 - - S 1007,3 16 -
09.07.2020 01:00:00 32,2 7,8 0 0 - - N 1007,2 16 -
09.07.2020 00:00:00 32,8 7,8 13 7 - - W 1007,1 16 -
08.07.2020 23:00:00 33,9 7,2 15 8 - - W 1006,9 16 0,0
08.07.2020 22:00:00 35,6 8,3 24 13 - - W 1006,2 16 -
08.07.2020 21:00:00 38,3 8,3 24 13 - - WNW 1005,0 16 -
08.07.2020 20:00:00 38,9 7,8 11 6 - - NW 1004,1 16 -
08.07.2020 19:00:00 39,4 7,8 21 11 - - NW 1003,6 16 -
08.07.2020 18:00:00 40,6 7,8 15 8 54 29 W 1003,5 16 -
08.07.2020 17:00:00 41,1 7,8 16 9 - - N 1003,8 16 0,0
08.07.2020 16:00:00 41,1 7,8 5 3 - - NW 1004,5 16 -
08.07.2020 15:00:00 41,1 8,3 13 7 - - WNW 1005,5 16 -
08.07.2020 14:00:00 40,0 8,3 11 6 - - SW 1006,4 16 -
08.07.2020 13:00:00 38,9 8,3 5 3 - - W 1007,3 16 -
08.07.2020 12:00:00 38,3 9,4 5 3 - - W 1007,9 16 -
08.07.2020 11:00:00 37,2 8,9 16 9 - - WNW 1008,6 16 0,0
08.07.2020 10:00:00 35,0 11,7 0 0 - - N 1008,8 16 -
08.07.2020 09:00:00 33,9 12,2 0 0 - - N 1008,9 16 -
08.07.2020 08:00:00 32,2 14,4 15 8 - - S 1009,1 16 -
08.07.2020 07:00:00 30,6 13,3 13 7 - - S 1008,7 16 -
08.07.2020 06:00:00 30,0 13,3 15 8 - - S 1008,3 16 -
08.07.2020 05:00:00 30,0 11,7 16 9 - - S 1008,1 16 0,0
08.07.2020 04:00:00 30,6 11,7 13 7 - - S 1007,6 16 -
08.07.2020 03:00:00 30,6 8,9 8 4 - - S 1007,3 16 -
08.07.2020 02:00:00 31,1 8,9 16 9 - - S 1007,2 16 -
08.07.2020 01:00:00 32,2 7,8 9 5 - - S 1007,3 16 -
08.07.2020 00:00:00 32,8 7,8 8 4 - - WSW 1006,8 16 -
07.07.2020 23:00:00 33,9 6,1 15 8 - - W 1006,5 16 0,0
07.07.2020 22:00:00 35,0 5,6 5 3 - - WNW 1005,7 16 -
07.07.2020 21:00:00 36,1 5,6 8 4 - - NNW 1005,2 16 -
07.07.2020 20:00:00 37,8 5,0 9 5 - - N 1004,5 16 -
07.07.2020 19:00:00 39,4 5,0 13 7 - - NNW 1004,4 16 -
07.07.2020 18:00:00 40,6 4,4 16 9 - - NNW 1004,4 16 -
07.07.2020 17:00:00 41,7 3,9 21 11 - - NNW 1004,8 16 0,0
07.07.2020 16:00:00 41,1 2,8 - - - - - 1005,4 16 -
07.07.2020 15:00:00 42,2 2,2 15 8 - - NW 1006,2 16 -
07.07.2020 14:00:00 41,1 3,3 5 3 - - SW 1006,9 16 -
07.07.2020 13:00:00 40,0 2,8 16 9 - - N 1007,8 16 -
07.07.2020 12:00:00 38,9 1,1 15 8 - - NW 1008,8 16 -
07.07.2020 11:00:00 37,2 6,7 8 4 - - - 1009,4 16 0,0
07.07.2020 10:00:00 34,4 8,3 0 0 - - N 1009,8 16 -
07.07.2020 09:00:00 33,9 7,8 0 0 - - N 1010,0 16 -
07.07.2020 08:00:00 31,7 11,1 0 0 - - N 1010,3 16 -
07.07.2020 07:00:00 28,9 12,2 16 9 - - SSE 1009,9 16 -
07.07.2020 06:00:00 28,3 11,1 11 6 - - SE 1009,3 16 -
07.07.2020 05:00:00 27,8 5,0 5 3 - - SE 1008,8 16 0,0
07.07.2020 04:00:00 28,9 5,6 11 6 - - SW 1008,2 16 -
07.07.2020 03:00:00 29,4 4,4 0 0 - - N 1007,7 16 -
07.07.2020 02:00:00 30,0 4,4 9 5 - - WSW 1007,5 16 -
07.07.2020 01:00:00 31,1 3,9 9 5 - - W 1007,2 16 -
07.07.2020 00:00:00 30,6 3,3 11 6 - - W 1007,6 16 -
06.07.2020 23:00:00 32,2 2,2 11 6 - - W 1007,1 16 0,0
06.07.2020 22:00:00 35,0 2,2 13 7 - - NNW 1006,7 16 -
06.07.2020 21:00:00 35,6 0,0 11 6 - - NNW 1005,8 16 -
06.07.2020 20:00:00 37,2 -0,6 11 6 - - NNW 1005,5 16 -
06.07.2020 19:00:00 39,4 -0,6 18 10 - - N 1005,3 16 -
06.07.2020 18:00:00 40,6 0,0 22 12 - - N 1005,1 16 -
06.07.2020 17:00:00 41,1 0,0 29 16 - - NNW 1005,7 16 0,0
06.07.2020 16:00:00 41,7 0,0 24 13 - - NW 1006,3 16 -
06.07.2020 15:00:00 41,7 0,0 24 13 - - NNW 1006,8 16 -
06.07.2020 14:00:00 40,6 -0,6 18 10 - - NNW 1007,4 16 -
06.07.2020 13:00:00 40,0 0,6 15 8 - - NW 1008,3 16 -
06.07.2020 12:00:00 38,9 1,7 8 4 - - - 1008,9 16 -
06.07.2020 11:00:00 37,2 3,3 9 5 - - - 1009,7 16 0,0
06.07.2020 10:00:00 35,0 3,9 0 0 - - N 1009,7 16 -
06.07.2020 09:00:00 34,4 8,3 0 0 - - N 1009,5 16 -
06.07.2020 08:00:00 31,1 9,4 5 3 - - S 1009,4 16 -
06.07.2020 07:00:00 27,8 10,6 9 5 - - SSE 1009,2 16 -
06.07.2020 06:00:00 25,6 10,0 8 4 - - S 1008,7 16 -
06.07.2020 05:00:00 26,1 9,4 15 8 - - SSE 1008,1 16 0,0
06.07.2020 04:00:00 27,2 10,0 8 4 - - S 1007,6 16 -
06.07.2020 03:00:00 28,3 9,4 11 6 - - SE 1007,3 16 -
06.07.2020 02:00:00 28,9 5,6 5 3 - - SW 1006,9 16 -
06.07.2020 01:00:00 30,0 4,4 8 4 - - ESE 1007,1 16 -
06.07.2020 00:00:00 31,1 3,3 9 5 - - W 1006,9 16 -
05.07.2020 23:00:00 32,2 3,3 11 6 - - WSW 1007,2 16 0,0
05.07.2020 22:00:00 34,4 3,3 9 5 - - NW 1006,5 16 -
05.07.2020 21:00:00 36,1 3,9 15 8 - - NNW 1006,1 16 -
05.07.2020 20:00:00 37,2 4,4 16 9 - - NNW 1005,6 16 -
05.07.2020 19:00:00 38,9 6,1 24 13 - - N 1005,1 16 -
05.07.2020 18:00:00 40,6 5,6 16 9 - - N 1004,8 16 -
05.07.2020 17:00:00 40,6 6,1 21 11 - - NW 1004,9 16 0,0
05.07.2020 16:00:00 41,1 6,7 29 16 65 35 N 1005,6 16 -
05.07.2020 15:00:00 40,0 5,6 9 5 - - - 1006,6 16 -
05.07.2020 14:00:00 39,4 7,2 18 10 - - WNW 1007,5 16 -
05.07.2020 13:00:00 39,4 8,3 13 7 - - NNW 1008,3 16 -
05.07.2020 12:00:00 37,8 8,9 16 9 - - W 1009,5 16 -
05.07.2020 11:00:00 36,1 9,4 11 6 - - SW 1010,1 16 0,0
05.07.2020 10:00:00 35,6 10,0 9 5 - - NW 1010,4 16 -
05.07.2020 09:00:00 33,3 11,1 0 0 - - N 1010,6 16 -
05.07.2020 08:00:00 30,6 12,8 8 4 - - S 1010,9 16 -
05.07.2020 07:00:00 28,3 13,3 9 5 - - S 1010,8 16 -
05.07.2020 06:00:00 25,6 13,3 13 7 - - SSE 1010,4 16 -

tt = temperature
td = dewpoint
ff = wind speed
fx = gusts
dd = wind direction
ppp = reduced air pressure
vv = visibility
rr = precipitation

Next stations